Location: Byszew
(52.1813°N, 19.2693°E)
Time: 12:11:18
(UTC+00:00)

Meteor 2-4 Rocket - Visible Passes

Search period start: 16 June 2021 00:00
Search period end: 26 June 2021 00:00
Orbit: 798 x 909 km, 81.2° (Epoch: 15 June)

Date Brightness Start Highest point End Pass type
(mag) Time Alt. Az. Time Alt. Az. Time Alt. Az.
23 Jun 6.6 01:32:29 10° NNE 01:36:21 19° NE 01:40:15 10° E visible
24 Jun 6.6 01:21:28 10° NNE 01:25:13 18° NE 01:29:00 10° E visible
25 Jun 6.6 01:10:27 10° NNE 01:14:04 17° NE 01:17:44 10° E visible
